Location: Chars
(49.1603°N, 1.9367°E)
Time: 09:27:17
(UTC+00:00)

Daily predictions for brighter satellites

Satellite Brightness Start Highest point End
(mag) Time Altitude Azimuth Time Altitude Azimuth Time Altitude Azimuth
Cosmos 2084 Rocket 3.4 16:37:09 10° SW 16:41:19 81° SE 16:45:32 10° NE
Cosmos 2100 Rocket 4.4 16:37:17 10° SSW 16:43:26 69° WNW 16:49:35 10° N
ATLAS CENTAUR R/B 2.5 16:40:49 10° W 16:43:52 28° NW 16:46:55 10° NNE
Cosmos 1441 Rocket 3.1 16:42:33 10° NNW 16:45:53 74° W 16:49:14 10° S
SAR-Lupe-4 4.0 16:43:06 10° SE 16:46:27 39° ENE 16:49:48 10° N
Cosmos 2221 Rocket 4.3 16:42:06 10° NNW 16:46:32 60° W 16:50:54 10° S
Cosmos 1833 Rocket 2.9 16:40:59 10° NNW 16:46:41 83° WSW 16:52:19 10° SSE
ARIANE 5 R/B 2.7 16:42:24 10° SE 16:47:08 46° ENE 16:51:55 10° N
USA 215 3.4 16:48:15 10° ESE 16:54:49 88° SSW 17:01:25 10° WNW
Timation 1 Rocket 4.5 16:49:11 10° NNW 16:55:01 52° NE 17:00:49 10° SE
IRS-P3 4.4 16:52:55 10° SE 16:57:55 43° ENE 17:02:57 10° N
MOS 1 Rocket 3.8 16:56:15 10° SE 17:00:04 31° ENE 17:04:03 10° N
ATLAS 5 CENTAUR R/B 2.3 16:56:05 10° NW 17:00:23 64° SW 17:05:44 10° SSE
Cosmos 1484 Rocket 3.9 17:00:40 10° S 17:04:01 43° W 17:07:26 10° NNW
Iridium 4 Rocket 4.2 17:01:17 10° SSW 17:06:12 53° W 17:10:45 10° N
Resurs 01 Rocket 3.7 17:08:57 10° NE 17:08:57 10° NE 17:09:06 10° NE
Cosmos 2233 Rocket 4.0 17:02:14 10° S 17:08:31 83° E 17:14:53 10° N
RESURS DK-1 2.3 17:05:14 10° NNW 17:09:12 56° ENE 17:13:07 10° SE
Cosmos 1602 4.3 17:07:04 10° NNE 17:09:32 22° ENE 17:11:59 10° SE
Cosmos 407 Rocket 3.8 17:04:37 10° S 17:09:32 45° ESE 17:14:26 10° NE
Cosmos 1725 Rocket 4.4 17:03:18 10° SSW 17:09:33 71° WNW 17:15:53 10° N
Cosmos 2061 Rocket 4.0 17:04:45 10° S 17:11:03 79° E 17:17:18 10° NNE
ISS -3.1 17:11:50 10° SW 17:15:01 42° SSE 17:17:12 18° E
Cosmos 1782 Rocket 3.7 17:10:52 10° SSW 17:15:18 80° W 17:19:46 10° N
CZ-2D R/B 2.6 17:13:08 10° SSE 17:16:16 70° ENE 17:19:26 10° N
Cosmos 1869 3.2 17:13:42 10° SSE 17:17:04 45° E 17:20:27 10° NNE
ERS-1 4.5 17:13:10 10° SSE 17:18:17 71° ENE 17:23:23 10° N
USA 281 4.4 17:15:06 13° ENE 17:18:51 22° NE 17:23:36 10° N
SPOT 1/Viking Rocket 4.0 17:14:20 10° SE 17:19:05 39° ENE 17:23:54 10° N
Cosmos 1300 Rocket 4.0 17:15:09 10° SSW 17:19:30 66° WNW 17:23:52 10° N
COSMO-SKYMED 1 3.8 17:21:26 17° ENE 17:22:41 20° E 17:25:43 10° SE
SJ-12 3.6 17:19:17 10° SSE 17:23:05 82° ENE 17:26:54 10° NNW
AQUARIUS 4.0 17:22:30 10° SSE 17:26:53 73° ENE 17:31:18 10° N
SL-12 R/B(2) 4.4 17:19:34 10° SSW 17:27:23 65° ESE 17:36:56 10° NE
Cosmos 540 Rocket 3.4 17:24:06 10° NNW 17:29:17 79° ENE 17:34:23 10° SSE
BREEZE-M DEB (TANK) 2.4 17:26:56 10° SW 17:29:19 55° SSE 17:32:21 20° E
Cosmos 1400 Rocket 3.8 17:28:08 10° SE 17:31:07 22° E 17:31:12 22° E
Cosmos 1975 Rocket 3.5 17:28:20 10° NNW 17:32:39 65° W 17:36:58 10° S
Spot 4 Rocket 4.3 17:28:06 10° SE 17:32:53 43° ENE 17:37:42 10° N
Cosmos 1763 Rocket 3.6 17:29:30 10° NNW 17:34:45 81° WSW 17:39:53 10° SSE
Cosmos 1812 2.2 17:33:38 10° S 17:36:26 45° E 17:37:34 28° NE
Cosmos 1140 Rocket 4.1 17:36:22 10° SW 17:41:27 56° WNW 17:46:32 10° NNE
Cosmos 2151 Rocket 4.0 17:37:32 10° SSE 17:41:42 39° E 17:45:29 12° NNE
Cosmos 2058 2.7 17:38:46 10° N 17:42:42 59° ENE 17:46:37 10° SSE
SMAP 4.1 17:38:31 10° S 17:43:01 49° W 17:47:33 10° NNW
Cosmos 44 Rocket 3.4 17:39:34 10° SSW 17:44:14 58° ESE 17:47:07 23° NE
Cosmos 1943 Rocket 2.1 17:43:39 10° SSW 17:49:16 79° ESE 17:54:09 14° NNE
SKYMED 2 3.7 17:45:23 11° NNE 17:49:31 51° E 17:53:45 10° S
Helios 1A Rocket 3.5 17:51:57 28° SE 17:51:57 28° SE 17:54:11 10° SSE
Okean 1 Rocket 3.7 17:47:44 10° SSE 17:51:37 32° E 17:51:43 31° E
CZ-2D R/B 3.4 17:47:48 10° SSE 17:51:54 66° ENE 17:56:06 10° N
SJ-7 4.2 17:48:21 10° SSE 17:51:55 50° ENE 17:55:30 10° N
IRAS Rocket 4.2 17:46:55 10° SSE 17:52:24 63° ENE 17:57:51 10° NNW
Sich 1 Rocket 4.2 17:48:35 10° SSE 17:52:40 34° E 17:53:29 31° ENE
Cosmos 2082 Rocket 2.1 17:47:46 10° NNW 17:53:25 79° ENE 17:59:02 10° SSE
PSLV R/B 3.5 17:49:37 10° SE 17:53:31 49° ENE 17:57:24 10° N
Cosmos 1072 Rocket 4.4 17:51:34 10° S 17:57:38 66° E 18:03:41 10° NNE
Cosmos 2026 Rocket 4.3 17:52:09 10° N 17:57:48 38° ENE 18:03:28 10° SE
Cosmos 2278 Rocket 2.1 17:52:23 10° SSW 17:58:03 86° ESE 18:02:47 15° NNE
NOAA 6 4.2 17:55:21 10° SE 18:00:17 49° ENE 18:05:13 10° N
BREEZE-M DEB (TANK) 3.2 17:58:18 10° SW 18:01:03 59° SSE 18:03:16 32° E
Aureole 3 Rocket 2.3 17:58:08 10° SSW 18:01:08 76° W 18:03:11 20° N
BREEZE-M DEB (TANK) 2.8 17:59:26 10° WSW 18:02:00 87° SSE 18:04:09 33° ENE
SL-16 R/B 4.2 18:00:08 10° N 18:05:33 32° WNW 18:10:58 10° WSW
Geosat 4.1 18:04:10 31° ESE 18:06:13 50° NE 18:11:03 10° NNW
Cosmos 2251 Rocket 3.4 18:03:36 10° SSW 18:08:52 79° ESE 18:12:38 20° NNE
YAOGAN 1 2.4 18:07:06 10° SSE 18:11:21 78° ENE 18:15:38 10° N
Cosmos 371 Rocket 3.5 18:07:55 10° S 18:12:29 46° ESE 18:12:52 45° E
Cosmos 304 Rocket 3.9 18:09:01 10° S 18:13:34 49° ESE 18:13:57 47° E
Cosmos 841 Rocket 3.4 18:09:15 10° NNW 18:14:29 64° ENE 18:17:16 28° SE
SJ 16-02 1.2 18:10:52 10° S 18:15:06 63° ESE 18:15:42 56° ENE
SL-19 R/B 4.0 18:10:23 10° SSE 18:15:35 84° ENE 18:20:52 10° NNW
CZ-4C R/B 3.9 18:15:42 10° WNW 18:19:48 22° N 18:22:36 17° NNE
Nadezhda 4 Rocket 3.9 18:13:40 10° N 18:20:00 90° W 18:26:14 10° S
Cosmos 1862 3.3 18:18:46 10° NNW 18:22:22 66° W 18:25:58 10° S
Resurs 1-3 3.5 18:19:02 10° SSE 18:23:20 85° WSW 18:27:40 10° NNW
ATLAS 2AS CENTAUR R/B 3.0 18:17:42 10° NW 18:24:10 43° NNE 18:25:35 39° ENE
COSMOS 2406 3.1 18:20:30 10° NNW 18:26:13 78° ENE 18:29:07 30° SE
Cosmos 1627 Rocket 4.4 18:22:23 10° N 18:28:27 60° ENE 18:34:32 10° SSE
Cosmos 1656 Rocket 4.1 18:24:03 10° S 18:28:33 42° SE 18:28:33 42° SE
Cosmos 2195 Rocket 4.4 18:27:32 10° N 18:33:54 80° E 18:40:14 10° SSE
Cosmos 1536 Rocket 4.2 18:30:07 10° NNW 18:34:28 56° W 18:38:46 10° S
Okean 2 Rocket 3.1 18:32:05 10° SSW 18:36:28 78° W 18:37:52 43° N
Cosmos 1190 Rocket 4.2 18:34:31 10° SSW 18:39:48 71° WNW 18:42:26 30° NNE
Cosmos 2344 3.8 18:34:35 10° NW 18:42:26 77° NE 18:47:32 33° SE
Cosmos 676 Rocket 3.9 18:37:22 10° SSW 18:42:40 80° ESE 18:43:16 69° NE
Resurs 01 Rocket 3.2 18:46:22 25° N 18:46:22 25° N 18:48:13 10° N
Meteor 2-3 Rocket 3.6 18:40:04 10° NNW 18:45:48 89° ENE 18:49:59 19° S
Cosmos 2297 Rocket 4.5 18:47:48 10° N 18:48:17 11° N 18:48:17 11° N
ISS -1.6 18:48:23 10° W 18:50:07 27° W 18:50:07 27° W
Cosmos 1954 Rocket 4.2 18:47:31 10° SSW 18:52:46 68° WNW 18:54:18 45° N
COSMO-SKYMED 1 3.4 18:57:48 43° NW 18:58:13 45° WNW 19:02:09 10° SW
USA 281 3.0 19:02:00 70° E 19:02:24 72° ENE 19:08:58 10° NNW
Cosmos 1943 Rocket 4.1 19:29:08 10° W 19:33:37 24° NW 19:35:40 20° NNW
Cosmos 2278 Rocket 4.2 19:38:27 10° W 19:42:51 23° NW 19:44:37 20° NNW
SJ 16-02 4.1 19:50:38 10° W 19:52:17 16° WNW 19:52:17 16° WNW
CZ-4C R/B 4.4 20:05:10 10° NW 20:07:32 20° NNW 20:07:32 20° NNW
ATLAS 2AS CENTAUR R/B 3.7 20:08:42 10° NW 20:13:01 40° WNW 20:13:01 40° WNW
